EW6263 Weather Reports


Display with metric or nautical units.
time (UTC)temp
F
wind
direction
speed
MPH
gust
MPH
rain 1hr
in
rain 24hr
in
rain mn
in
humidity
%
barometer
mb
20190216220004 53 219 2.0 6.0 0.00 0.00 0.00 60 1019.0
20190216214705 54 224 2.0 5.0 0.00 0.00 0.00 57 1018.9
20190216213418 56 190 2.0 11.0 0.00 0.00 0.00 55 1019.0
20190216211727 55 180 3.0 9.0 0.00 0.00 0.00 58 1019.4
20190216210204 55 200 3.0 16.0 0.00 0.00 0.00 60 1019.7
20190216204707 54 191 4.0 11.0 0.00 0.00 0.00 60 1020.0
20190216203158 54 232 2.0 4.0 0.00 0.00 0.00 59 1020.3
20190216201659 54 211 3.0 10.0 0.00 0.00 0.00 61 1020.5
20190216200149 54 170 3.0 11.0 0.00 0.00 0.00 60 1020.8
20190216194707 53 223 2.0 8.0 0.00 0.00 0.00 62 1020.8
20190216193152 53 213 2.0 12.0 0.00 0.00 0.00 64 1020.7
20190216191640 53 211 3.0 12.0 0.00 0.00 0.00 64 1021.0
20190216190124 52 210 2.0 11.0 0.00 0.00 0.00 67 1021.1
20190216184628 50 207 0.0 7.0 0.00 0.00 0.00 72 1021.3
20190216183102 50 219 2.0 7.0 0.00 0.00 0.00 71 1021.2
20190216181621 50 231 4.0 12.0 0.00 0.00 0.00 72 1021.3
20190216180109 50 182 2.0 11.0 0.00 0.00 0.00 73 1021.2
20190216174543 49 174 4.0 16.0 0.00 0.00 0.00 80 1021.1
20190216173050 48 175 4.0 11.0 0.00 0.00 0.00 80 1021.3
20190216171606 48 210 2.0 11.0 0.00 0.00 0.00 81 1021.2
20190216170120 46 148 2.0 12.0 0.00 0.00 0.00 85 1021.0
20190216164527 46 182 5.0 13.0 0.00 0.00 0.00 84 1020.7
20190216163111 45 163 5.0 10.0 0.00 0.00 0.00 88 1020.6
20190216161529 44 122 5.0 10.0 0.00 0.00 0.00 89 1020.7
20190216160038 44 142 3.0 12.0 0.00 0.00 0.00 91 1020.8
20190216154514 43 154 5.0 12.0 0.00 0.00 0.00 91 1020.8
20190216153008 43 137 5.0 8.0 0.00 0.00 0.00 91 1020.5
20190216151504 43 144 7.0 10.0 0.00 0.00 0.00 91 1020.3
20190216150011 43 134 5.0 9.0 0.00 0.00 0.00 90 1020.3
20190216144735 43 112 3.0 8.0 0.00 0.00 0.00 90 1020.3
20190216143229 43 117 4.0 7.0 0.00 0.00 0.00 90 1020.1
20190216141712 43 121 2.0 8.0 0.00 0.00 0.00 90 1019.8
20190216140204 44 129 4.0 9.0 0.00 0.00 0.00 89 1019.8
20190216134629 44 123 5.0 9.0 0.00 0.00 0.00 88 1019.6
20190216133203 44 156 3.0 9.0 0.00 0.00 0.00 88 1019.7
20190216131636 44 125 4.0 10.0 0.00 0.00 0.00 89 1019.6
20190216130131 44 117 2.0 8.0 0.00 0.00 0.00 90 1019.4
20190216124729 44 134 6.0 10.0 0.00 0.00 0.00 91 1019.2
20190216123130 44 148 4.0 9.0 0.00 0.00 0.00 91 1019.4
20190216121653 44 130 4.0 9.0 0.00 0.00 0.00 91 1019.4
20190216120101 44 112 5.0 11.0 0.00 0.00 0.00 91 1019.3
20190216114632 44 122 5.0 9.0 0.00 0.00 0.00 91 1019.2
20190216113110 44 132 6.0 10.0 0.00 0.00 0.00 91 1019.2
20190216111604 44 148 5.0 10.0 0.00 0.00 0.00 92 1019.0
20190216110134 44 123 4.0 8.0 0.00 0.00 0.00 93 1019.1
20190216104622 44 163 4.0 8.0 0.00 0.00 0.00 92 1019.2
20190216103102 44 109 4.0 8.0 0.00 0.00 0.00 92 1019.2
20190216101623 44 121 3.0 8.0 0.00 0.00 0.00 91 1019.3
20190216100132 44 119 4.0 9.0 0.00 0.00 0.00 91 1019.3
20190216094553 44 75 2.0 8.0 0.00 0.00 0.00 89 1019.2
20190216093105 44 100 4.0 10.0 0.00 0.00 0.00 87 1019.2
20190216091539 45 148 4.0 10.0 0.00 0.00 0.00 86 1019.0
20190216090049 45 109 3.0 9.0 0.00 0.00 0.00 86 1019.1
20190216084551 45 149 5.0 10.0 0.00 0.00 0.00 85 1019.1
20190216083048 45 134 6.0 11.0 0.00 0.00 0.00 84 1018.8
20190216081603 45 127 6.0 12.0 0.00 0.00 0.00 84 1018.7
20190216080034 45 140 5.0 12.0 0.00 0.00 0.00 85 1018.6
20190216074544 45 143 6.0 12.0 0.00 0.00 0.00 85 1018.7
20190216073043 44 173 3.0 10.0 0.00 0.00 0.00 86 1018.6
20190216071519 44 151 4.0 8.0 0.00 0.00 0.00 88 1018.7
20190216070045 43 124 4.0 7.0 0.00 0.00 0.00 89 1018.8
20190216064549 43 126 3.0 6.0 0.00 0.00 0.00 89 1018.7
20190216063028 43 111 3.0 7.0 0.00 0.00 0.00 89 1018.7
20190216061634 43 123 4.0 7.0 0.00 0.00 0.00 89 1018.6
20190216060031 43 119 2.0 7.0 0.00 0.00 0.00 88 1018.4
20190216054514 43 106 2.0 5.0 0.00 0.00 0.00 87 1018.4
20190216053025 43 129 2.0 7.0 0.00 0.00 0.00 86 1018.1
20190216051508 44 133 3.0 8.0 0.00 0.00 0.00 86 1017.9
20190216050012 44 115 3.0 8.0 0.00 0.00 0.00 85 1017.8
20190216044502 45 141 3.0 7.0 0.00 0.00 0.00 83 1017.6
20190216043317 44 138 2.0 7.0 0.00 0.00 0.00 84 1017.4
20190216041656 44 130 2.0 5.0 0.00 0.00 0.00 87 1017.3
20190216040209 45 122 3.0 5.0 0.00 0.00 0.00 86 1017.1
20190216034649 45 132 3.0 5.0 0.00 0.00 0.00 84 1017.1
20190216033142 45 129 2.0 4.0 0.00 0.00 0.00 85 1017.3
20190216031645 45 127 0.0 3.0 0.00 0.00 0.00 85 1017.3
20190216030129 45 120 2.0 6.0 0.00 0.00 0.00 84 1016.9
20190216024708 45 132 3.0 5.0 0.00 0.00 0.00 83 1016.7
20190216023130 46 109 2.0 7.0 0.00 0.00 0.00 81 1016.8
20190216021651 46 140 3.0 6.0 0.00 0.00 0.00 79 1016.6
20190216020223 46 134 0.0 3.0 0.00 0.00 0.00 78 1016.3
20190216014612 46 183 0.0 1.0 0.00 0.00 0.00 76 1016.0
20190216013128 47 182 0.0 4.0 0.00 0.00 0.00 76 1016.0
20190216011711 47 157 2.0 6.0 0.00 0.00 0.00 78 1016.1
20190216010133 47 311 0.0 3.0 0.00 0.00 0.00 77 1016.2
20190216004718 49 227 1.0 4.0 0.00 0.00 0.00 73 1016.3
20190216003203 50 224 2.0 3.0 0.00 0.00 0.00 68 1016.2
20190216001658 50 180 3.0 9.0 0.00 0.00 0.00 72 1016.0
20190216000146 50 184 2.0 11.0 0.00 0.00 0.00 71 1016.1
20190215234642 51 184 3.0 13.0 0.00 0.00 0.00 68 1015.8
20190215233106 52 182 3.0 11.0 0.00 0.00 0.00 68 1015.6
20190215231643 52 192 3.0 12.0 0.00 0.00 0.00 67 1015.4
20190215230137 52 184 4.0 14.0 0.00 0.00 0.00 68 1015.2
20190215224625 52 209 4.0 17.0 0.00 0.00 0.00 67 1015.1
20190215223139 52 212 5.0 15.0 0.00 0.00 0.00 67 1015.1
20190215221736 51 181 3.0 7.0 0.00 0.00 0.00 73 1015.0